Regional Weather Roundup
Issued by NWS

Home | Current Version | Previous Version | Graphics & Text | Print | Product List | Glossary On
Versions: 1 2 3 4 5 6 7 8 9 10 11 12 13 14 15 16 17 18 19 20 21 22 23 24 25 26 27 28 29 30 31 32 33 34 35 36 37 38 39 40 41 42 43 44 45 46 47 48 49 50
000
ASUS43 KLOT 240404
RWRIL

ILLINOIS REGIONAL WEATHER ROUNDUP
NATIONAL WEATHER SERVICE CHICAGO/ROMEOVILLE IL
1100 PM CDT SAT JUL 23 2016

NOTE: "FAIR" INDICATES FEW OR NO CLOUDS BELOW 12,000 FEET WITH NO
SIGNIFICANT WEATHER AND/OR OBSTRUCTIONS TO VISIBILITY.

* THESE STATIONS ARE NOT UNDER NWS QUALITY CONTROL. THEY ALSO MAY NOT
  REPORT WEATHER SUCH AS PRECIPITATION OR FOG.

ILZ001-002-007-009-015-016-024-240500-
NORTHWEST ILLINOIS

CITY           SKY/WX    TMP DP  RH WIND       PRES   REMARKS
MOLINE         CLOUDY    77  70  79 SE12      29.91S
STERLING*      CLOUDY    72  71  97 CALM      29.92F
SAVANNA*       CLOUDY    71  69  94 S3        29.90F
$$

ILZ003-004-008-010-011-017-018-240500-
NORTH CENTRAL ILLINOIS

CITY           SKY/WX    TMP DP  RH WIND       PRES   REMARKS
ROCKFORD       CLOUDY    72  70  93 E5        29.94S
FREEPORT*      CLOUDY    70  69  97 SE3       29.93F
ROCHELLE*      CLOUDY    72  71  97 SE7       29.94S
DE KALB*       TSTM      71  70  97 E9        29.96F
$$

ILZ005-006-012>014-019>023-240500-
NORTHEAST ILLINOIS

CITY           SKY/WX    TMP DP  RH WIND       PRES   REMARKS
CHICAGO-OHARE  TSTM      71  69  93 E10       29.99F
CHICAGO-MIDWAY TSTM      72  70  93 SW5       30.00R
AURORA         TSTM      72  70  93 SE7       29.98R
LANSING*       CLOUDY    74  69  83 NW15G30   30.04R
WAUKEGAN       LGT RAIN  71  69  93 S12       29.97S
DUPAGE AIRPORT TSTM      71  68  90 SE9       29.99R FOG
WHEELING       LGT RAIN  71  68  90 SE12      29.99F FOG
MORRIS*        TSTM      72  71  95 NE3G17    29.97S
NORTHERLY ISL    N/A     71  68  90 N6          N/A
$$

LMZ740>746-240500-
SOUTHERN LAKE MICHIGAN

STATION/POSITION SKY/WX   TEMP    WIND        PRES    VSBY  WAVE
                          AIR SEA DIR/SP/G                  HT/PER
                          (F)     (DEG/KT/KT) (MB)    (MI)  (FT/S)
SOUTHERN BUOY              76 75  230/ 10/ 14 1014.4          0
WILMETTE HARBOR            67 61  360/ 12/ 17   N/A           2/ 3
HARRISON CRIB              78     330/ 14/ 16   N/A
BURNHAM HARBOR             70      CALM  / 16   N/A
CALUMET HARBOR             77                   N/A
BURNS HARBOR               77     130/  9/ 20 1013.9F
MICHIGAN CITY              74     110/ 12/ 14   N/A
MICHIGAN CITY 6N           76 73  140/ 12/ 16   N/A           3/ 5
ST. JOSEPH                 76 77  110/ 10/ 14 1012.8F         2/ 2
$$

ILZ025>027-034>036-040-047-049-050-058-095>099-240500-
WEST-CENTRAL ILLINOIS

CITY           SKY/WX    TMP DP  RH WIND       PRES   REMARKS
QUINCY         CLOUDY    83  76  79 SE7       29.92R HX  91
GALESBURG*     CLOUDY    81  77  88 E3        29.94R HX  88
MACOMB*        CLEAR     80  78  94 SE6       29.95S HX  86
JACKSONVILLE*  CLOUDY    82  76  82 SE6       29.94S HX  89
PITTSFIELD*    CLOUDY    81  77  89 SE5       29.94S HX  88
$$

ILZ028>032-037-038-041>044-048-051>054-059>061-240500-
CENTRAL ILLINOIS

CITY           SKY/WX    TMP DP  RH WIND       PRES   REMARKS
PONTIAC        MOCLDY    80  79  98 E3        29.98R HX  86
BLOOMINGTON    PTCLDY    78  76  93 S8        29.97F HX  81
DECATUR        CLEAR     81  76  84 S6        29.97R HX  87
PEORIA         CLOUDY    84  77  79 S8        29.94S HX  94
LACON*         CLOUDY    78  70  77 CALM      29.97R HX  80
LINCOLN*       MOCLDY    81  79  94 CALM      29.96S HX  89
SPRINGFIELD    PTCLDY    82  77  84 SE5       29.96R HX  90
TAYLORVILLE    CLEAR     79  76  91 CALM      29.97R HX  84
$$

ILZ033-039-045-046-055>057-062-063-240500-
EAST-CENTRAL ILLINOIS

CITY           SKY/WX    TMP DP  RH WIND       PRES   REMARKS
CHAMPAIGN      CLEAR     79  76  90 CALM      29.97S HX  83
MATTOON        CLEAR     79  74  84 S6        29.96F HX  82
PARIS*         CLEAR     76  76  98 CALM      29.98F
$$

ILZ079-100>102-240500-
SOUTHWEST ILLINOIS

CITY           SKY/WX    TMP DP  RH WIND       PRES   REMARKS
ALTON          CLEAR     78  75  89 SE6       29.95S HX  81
BELLEVILLE     CLEAR     80  79  98 CALM      29.94S HX  87
CAHOKIA*       CLEAR     82  76  81 CALM      29.94R HX  89
SPARTA*        CLEAR     80  76  87 SE3       29.97R HX  87
$$

ILZ064>066-069>071-074>076-080>082-084>086-088>090-092>094-240500-
SOUTH-CENTRAL ILLINOIS

CITY           SKY/WX    TMP DP  RH WIND       PRES   REMARKS
CARBONDALE     CLEAR     80  76  87 CALM      29.95F HX  86
CAIRO*         PTCLDY    79  78  96 CALM      29.95F HX  83
EFFINGHAM*     CLEAR     78  78 100 E3        29.98S FOG     HX  81
MARION         PTCLDY    82  79  89 SE5       29.96F HX  93
MT. VERNON     CLEAR     82  73  74 S5        29.96F HX  88
CENTRALIA*     CLEAR     80  77  91 SE5       29.95F HX  85
SALEM*         CLEAR     82  76  81 CALM      29.96F HX  89
METROPOLIS*    PTCLDY    78  77  96 CALM      29.97S HX  80
$$

ILZ067-068-072-073-078-083-087-091-240500-
SOUTHEAST ILLINOIS

CITY           SKY/WX    TMP DP  RH WIND       PRES   REMARKS
LAWRENCEVILLE  CLEAR     80  78  94 CALM      29.98S FOG     HX  88
FLORA*         CLEAR     79  77  93 CALM      29.97S FOG     HX  84
FAIRFIELD*     PTCLDY    80  77  91 CALM      29.95F HX  85
HARRISBURG*    CLEAR     79  78  98 CALM      29.96F FOG     HX  82
ROBINSON*      CLEAR     75  74  99 S5        29.97F FOG
CARMI*         CLEAR     78  78 100 CALM      29.95F FOG     HX  80
$$

ABBREVIATIONS USED IN REMARKS
   TC - TEMPERATURE IN CELSIUS
  WCI - WIND CHILL INDEX
   HX - HEAT INDEX
  VSB - VISIBILITY
$$





USA.gov is the U.S. government's official web portal to all federal, state and local government web resources and services.